Location: Eymir
(36.7333°N, 29.7833°E)
Time: 17:38:05
(UTC+00:00)

Cosmos 1992 Rocket - Pass Details

Date: 14 January 2026
Orbit: 754 x 761 km, 74.0° (Epoch: 17 February)

Event Time Altitude Azimuth Distance (km) Brightness Sun altitude
Exits shadow 03:38:04 12° 343° (NNW) 2,155 6.0 -18.7°
Maximum altitude 03:42:55 88° 73° (ENE) 763 3.9 -17.7°
Drops below altitude 10° 03:48:06 10° 163° (SSE) 2,280 6.9 -16.7°
Sets 03:50:27 0° 163° (SSE) 3,203 7.7 -16.3°
